sat.trackr.live / text

‹ back to catalog

STARLINK-33656

NORAD 63389 · 2025-063AC

PAYLOAD ACTIVE UNKNOWN

§ Identity

Operator
Country
US
Launch date
2025-03-26
Launch site
AFWTR
Launch vehicle
Mass (kg)
RCS (m²)

Purposes: comms

External: N2YO · Heavens-Above · Gunter

§ Orbital elements

Epoch: 2026-09-20T11:23:23.022528Z

Period
94.01 min
Inclination
53.1564°
Eccentricity
0.0001356
Mean motion
15.31718679 rev/d
Perigee alt
469.8 km
Apogee alt
471.6 km
Semi-major
6,848.8 km
B*
4.3169e-4
RAAN
226.1632°
Arg perigee
94.7064°
Mean anomaly
265.4092°
Rev number
8,460

§ Raw data

STARLINK-336561 63389U 25063AC  26263.47457202  .00013062  00000+0  43169-3 0  99922 63389  53.1564 226.1632 0001356  94.7064 265.4092 15.31718679 84606

JSON: /api/v1/satellites/63389 · /tle

For live sub-satellite position, see the globe view (requires WebGL).

§ Visibility from observer

Set your observer location to see the next 7 days of passes ≥ 10°. The values pass through the URL so the page stays shareable.

No JS? Fill the form by hand. The geolocation button needs JavaScript.